Location: B�hl
(48.6968°N, 8.1352°E)
Time: 00:34:26
(UTC+00:00)

Cosmos 1898 Rocket - Pass Details

Date: 08 March 2021
Orbit: 753 x 784 km, 74.0° (Epoch: 14 April)

Event Time Altitude Azimuth Distance (km) Brightness Sun altitude
Rises 20:11:26 0° 332° (NNW) 3,235 7.6 -27.9°
Reaches altitude 10° 20:13:52 10° 327° (NNW) 2,309 6.7 -28.2°
Maximum altitude 20:18:52 47° 255° (WSW) 1,017 4.3 -29.0°
Enters shadow 20:19:33 44° 231° (SW) 1,057 4.2 -29.1°
